| time (UTC) | temp F | wind direction | speed MPH | gust MPH | rain 1hr in | rain 24hr in | rain mn in | humidity % | barometer mb |
| 20260510194200 | 57 | 281 | 3.0 | 6.0 | 0.00 | 0.01 | 0.00 | 40 | 980.1 |
| 20260510193522 | 58 | 231 | 8.0 | 3.0 | 0.00 | 0.01 | 0.00 | 40 | 980.2 |
| 20260510192841 | 57 | 339 | 4.0 | 6.0 | 0.00 | 0.01 | 0.00 | 43 | 980.2 |
| 20260510192204 | 57 | 212 | 6.0 | 3.0 | 0.00 | 0.01 | 0.00 | 42 | 980.4 |
| 20260510191523 | 56 | 329 | 0.0 | 0.0 | 0.00 | 0.01 | 0.00 | 44 | 980.3 |
| 20260510190846 | 56 | 295 | 8.0 | 5.0 | 0.00 | 0.01 | 0.00 | 43 | 980.3 |
| 20260510190205 | 57 | 335 | 7.0 | 6.0 | 0.00 | 0.01 | 0.00 | 43 | 980.4 |
| 20260510185527 | 57 | 255 | 1.0 | 10.0 | 0.00 | 0.01 | 0.00 | 43 | 980.4 |
| 20260510184847 | 57 | 333 | 7.0 | 7.0 | 0.00 | 0.01 | 0.00 | 42 | 980.3 |
| 20260510184209 | 57 | 298 | 5.0 | 6.0 | 0.00 | 0.01 | 0.00 | 42 | 980.5 |
| 20260510183528 | 56 | 11 | 8.0 | 5.0 | 0.00 | 0.01 | 0.00 | 43 | 980.5 |
| 20260510182851 | 55 | 291 | 7.0 | 0.0 | 0.00 | 0.01 | 0.00 | 45 | 980.3 |
| 20260510182210 | 54 | 273 | 2.0 | 0.0 | 0.00 | 0.01 | 0.00 | 44 | 980.3 |
| 20260510181533 | 54 | 262 | 3.0 | 12.0 | 0.00 | 0.01 | 0.00 | 44 | 980.3 |
| 20260510180852 | 55 | 252 | 9.0 | 5.0 | 0.00 | 0.01 | 0.00 | 43 | 980.1 |
| 20260510180214 | 55 | 256 | 7.0 | 3.0 | 0.00 | 0.01 | 0.00 | 44 | 980.0 |
| 20260510175533 | 56 | 249 | 7.0 | 10.0 | 0.00 | 0.01 | 0.00 | 43 | 980.1 |
| 20260510174856 | 56 | 349 | 9.0 | 9.0 | 0.00 | 0.01 | 0.00 | 44 | 980.1 |
| 20260510174215 | 56 | 281 | 3.0 | 6.0 | 0.00 | 0.01 | 0.00 | 43 | 980.3 |
| 20260510173538 | 56 | 285 | 6.0 | 6.0 | 0.00 | 0.01 | 0.00 | 45 | 980.1 |
| 20260510172857 | 55 | 270 | 6.0 | 8.0 | 0.00 | 0.01 | 0.00 | 44 | 980.2 |
| 20260510172220 | 54 | 248 | 8.0 | 5.0 | 0.00 | 0.01 | 0.00 | 45 | 980.1 |
| 20260510171539 | 55 | 264 | 7.0 | 5.0 | 0.00 | 0.01 | 0.00 | 44 | 980.2 |
| 20260510170901 | 54 | 314 | 2.0 | 8.0 | 0.00 | 0.01 | 0.00 | 46 | 980.1 |
| 20260510170220 | 54 | 259 | 9.0 | 7.0 | 0.00 | 0.01 | 0.00 | 44 | 980.1 |
| 20260510165543 | 54 | 232 | 5.0 | 7.0 | 0.00 | 0.01 | 0.00 | 44 | 980.0 |
| 20260510164902 | 54 | 314 | 5.0 | 10.0 | 0.00 | 0.01 | 0.00 | 44 | 980.1 |
| 20260510164225 | 55 | 236 | 5.0 | 6.0 | 0.00 | 0.01 | 0.00 | 45 | 979.9 |
| 20260510163544 | 55 | 262 | 8.0 | 7.0 | 0.00 | 0.01 | 0.00 | 44 | 980.0 |
| 20260510162907 | 55 | 276 | 4.0 | 8.0 | 0.00 | 0.01 | 0.00 | 44 | 980.1 |
| 20260510162226 | 54 | 231 | 3.0 | 0.0 | 0.00 | 0.01 | 0.00 | 44 | 980.0 |
| 20260510161549 | 54 | 214 | 6.0 | 6.0 | 0.00 | 0.01 | 0.00 | 44 | 980.0 |
| 20260510160908 | 54 | 277 | 5.0 | 2.0 | 0.00 | 0.01 | 0.00 | 44 | 979.9 |
| 20260510160230 | 53 | 257 | 5.0 | 11.0 | 0.00 | 0.01 | 0.00 | 46 | 980.0 |
| 20260510155549 | 53 | 276 | 4.0 | 9.0 | 0.00 | 0.01 | 0.00 | 47 | 979.9 |
| 20260510154912 | 53 | 322 | 5.0 | 5.0 | 0.00 | 0.01 | 0.00 | 48 | 979.9 |
| 20260510154231 | 53 | 253 | 5.0 | 0.0 | 0.00 | 0.01 | 0.00 | 47 | 979.8 |
| 20260510153554 | 54 | 243 | 0.0 | 0.0 | 0.00 | 0.01 | 0.00 | 48 | 979.9 |
| 20260510152913 | 54 | 288 | 3.0 | 6.0 | 0.00 | 0.01 | 0.00 | 50 | 979.9 |
| 20260510152236 | 53 | 338 | 4.0 | 8.0 | 0.00 | 0.01 | 0.00 | 50 | 979.9 |
| 20260510151555 | 53 | 353 | 3.0 | 3.0 | 0.00 | 0.01 | 0.00 | 50 | 979.8 |
| 20260510150917 | 52 | 288 | 6.0 | 8.0 | 0.00 | 0.01 | 0.00 | 50 | 980.0 |
| 20260510150237 | 52 | 295 | 4.0 | 8.0 | 0.00 | 0.01 | 0.00 | 50 | 979.9 |
| 20260510145559 | 52 | 340 | 3.0 | 0.0 | 0.00 | 0.01 | 0.00 | 52 | 979.7 |
| 20260510144918 | 52 | 330 | 8.0 | 5.0 | 0.00 | 0.01 | 0.00 | 54 | 979.8 |
| 20260510144241 | 52 | 300 | 3.0 | 9.0 | 0.00 | 0.01 | 0.00 | 54 | 979.9 |
| 20260510143600 | 51 | 347 | 1.0 | 0.0 | 0.00 | 0.01 | 0.00 | 55 | 979.7 |
| 20260510142923 | 51 | 285 | 4.0 | 0.0 | 0.00 | 0.01 | 0.00 | 56 | 979.8 |
| 20260510142242 | 51 | 253 | 3.0 | 0.0 | 0.00 | 0.01 | 0.00 | 57 | 979.7 |
| 20260510141605 | 50 | 262 | 3.0 | 5.0 | 0.00 | 0.01 | 0.00 | 59 | 979.7 |
| 20260510140924 | 50 | 212 | 4.0 | 5.0 | 0.00 | 0.01 | 0.00 | 59 | 979.7 |
| 20260510140246 | 50 | 225 | 1.0 | 6.0 | 0.00 | 0.01 | 0.00 | 59 | 979.7 |
| 20260510135606 | 49 | 304 | 3.0 | 4.0 | 0.00 | 0.01 | 0.00 | 60 | 979.7 |
| 20260510134928 | 49 | 208 | 4.0 | 7.0 | 0.00 | 0.01 | 0.00 | 62 | 979.8 |
| 20260510134247 | 49 | 170 | 2.0 | 0.0 | 0.00 | 0.01 | 0.00 | 64 | 979.7 |
| 20260510133610 | 48 | 259 | 2.0 | 7.0 | 0.00 | 0.01 | 0.00 | 65 | 979.8 |
| 20260510132929 | 48 | 188 | 4.0 | 0.0 | 0.00 | 0.01 | 0.00 | 67 | 979.8 |
| 20260510132252 | 47 | 208 | 0.0 | 0.0 | 0.00 | 0.01 | 0.00 | 70 | 979.9 |
| 20260510131611 | 47 | 281 | 3.0 | 8.0 | 0.00 | 0.01 | 0.00 | 72 | 979.9 |
| 20260510130934 | 46 | 242 | 0.0 | 0.0 | 0.00 | 0.01 | 0.00 | 74 | 980.1 |
| 20260510130253 | 46 | 217 | 3.0 | 0.0 | 0.00 | 0.01 | 0.00 | 77 | 980.1 |
| 20260510125615 | 45 | 255 | 0.0 | 0.0 | 0.00 | 0.01 | 0.00 | 81 | 980.0 |
| 20260510124935 | 44 | 236 | 2.0 | 5.0 | 0.00 | 0.01 | 0.00 | 81 | 980.2 |
| 20260510124257 | 43 | 207 | 0.0 | 6.0 | 0.00 | 0.01 | 0.00 | 82 | 980.1 |
| 20260510123616 | 43 | 210 | 2.0 | 0.0 | 0.00 | 0.01 | 0.00 | 83 | 980.1 |
| 20260510122939 | 42 | 242 | 1.0 | 0.0 | 0.00 | 0.01 | 0.00 | 85 | 980.1 |
| 20260510122258 | 42 | 228 | 2.0 | 0.0 | 0.00 | 0.01 | 0.00 | 85 | 980.2 |
| 20260510121621 | 42 | 257 | 0.0 | 0.0 | 0.00 | 0.01 | 0.00 | 87 | 980.2 |
| 20260510120940 | 41 | 214 | 0.0 | 0.0 | 0.00 | 0.01 | 0.00 | 90 | 980.2 |
| 20260510115724 | 39 | 10 | 0.0 | 0.0 | 0.00 | 0.01 | 0.00 | 94 | 980.3 |
| 20260510115622 | 39 | 10 | 0.0 | 0.0 | 0.00 | 0.01 | 0.00 | 94 | 980.3 |
| 20260510114944 | 38 | 10 | 0.0 | 0.0 | 0.00 | 0.01 | 0.00 | 96 | 980.2 |
| 20260510114303 | 37 | 10 | 0.0 | 0.0 | 0.00 | 0.01 | 0.00 | 98 | 980.2 |
| 20260510113626 | 35 | 10 | 0.0 | 0.0 | 0.00 | 0.01 | 0.00 | 99 | 980.2 |
| 20260510112945 | 34 | 10 | 0.0 | 0.0 | 0.00 | 0.01 | 0.00 | 100 | 980.3 |
| 20260510112307 | 33 | 10 | 0.0 | 0.0 | 0.00 | 0.01 | 0.00 | 100 | 980.4 |
| 20260510111626 | 32 | 10 | 0.0 | 0.0 | 0.00 | 0.01 | 0.00 | 100 | 980.4 |
| 20260510110949 | 31 | 10 | 0.0 | 0.0 | 0.00 | 0.01 | 0.00 | 100 | 980.4 |
| 20260510110308 | 31 | 10 | 0.0 | 0.0 | 0.00 | 0.01 | 0.00 | 100 | 980.2 |
| 20260510105717 | 30 | 10 | 0.0 | 0.0 | 0.00 | 0.01 | 0.00 | 100 | 980.1 |
| 20260510105631 | 30 | 10 | 0.0 | 0.0 | 0.00 | 0.01 | 0.00 | 100 | 980.1 |
| 20260510104312 | 29 | 10 | 0.0 | 0.0 | 0.00 | 0.01 | 0.00 | 100 | 979.7 |
| 20260510103631 | 29 | 10 | 0.0 | 0.0 | 0.00 | 0.01 | 0.00 | 100 | 979.6 |
| 20260510102954 | 29 | 10 | 0.0 | 0.0 | 0.00 | 0.01 | 0.00 | 100 | 979.5 |
| 20260510102313 | 29 | 10 | 0.0 | 0.0 | 0.00 | 0.01 | 0.00 | 100 | 979.5 |
| 20260510101635 | 29 | 10 | 0.0 | 0.0 | 0.00 | 0.01 | 0.00 | 100 | 979.5 |
| 20260510100954 | 30 | 10 | 0.0 | 0.0 | 0.00 | 0.01 | 0.00 | 100 | 979.4 |
| 20260510100317 | 30 | 10 | 0.0 | 0.0 | 0.00 | 0.01 | 0.00 | 100 | 979.5 |
| 20260510095636 | 30 | 10 | 0.0 | 0.0 | 0.00 | 0.01 | 0.00 | 100 | 979.4 |
| 20260510094317 | 31 | 10 | 0.0 | 0.0 | 0.00 | 0.01 | 0.00 | 100 | 979.2 |
| 20260510093640 | 31 | 10 | 0.0 | 0.0 | 0.00 | 0.01 | 0.00 | 100 | 979.2 |
| 20260510092959 | 31 | 10 | 0.0 | 0.0 | 0.00 | 0.01 | 0.00 | 99 | 979.1 |
| 20260510092322 | 31 | 10 | 0.0 | 0.0 | 0.00 | 0.01 | 0.00 | 99 | 979.1 |
| 20260510091641 | 31 | 10 | 0.0 | 0.0 | 0.00 | 0.01 | 0.00 | 99 | 979.0 |
| 20260510091043 | 31 | 10 | 0.0 | 0.0 | 0.00 | 0.01 | 0.00 | 98 | 978.7 |
| 20260510091003 | 31 | 10 | 0.0 | 0.0 | 0.00 | 0.01 | 0.00 | 98 | 978.7 |
| 20260510090322 | 32 | 10 | 0.0 | 0.0 | 0.00 | 0.01 | 0.00 | 98 | 978.7 |
| 20260510085645 | 32 | 10 | 0.0 | 0.0 | 0.00 | 0.01 | 0.00 | 98 | 978.7 |
| 20260510084326 | 31 | 10 | 0.0 | 0.0 | 0.00 | 0.01 | 0.00 | 97 | 978.6 |
| 20260510083722 | 32 | 10 | 0.0 | 0.0 | 0.00 | 0.01 | 0.00 | 97 | 978.4 |
| 20260510083645 | 32 | 10 | 0.0 | 0.0 | 0.00 | 0.01 | 0.00 | 97 | 978.4 |
| 20260510083008 | 32 | 10 | 0.0 | 0.0 | 0.00 | 0.01 | 0.00 | 96 | 978.3 |
| 20260510082327 | 32 | 10 | 0.0 | 0.0 | 0.00 | 0.01 | 0.00 | 96 | 978.2 |
| 20260510081649 | 32 | 10 | 0.0 | 0.0 | 0.00 | 0.01 | 0.00 | 95 | 978.1 |
| 20260510080331 | 33 | 10 | 0.0 | 0.0 | 0.00 | 0.01 | 0.00 | 94 | 977.9 |
| 20260510075650 | 34 | 10 | 0.0 | 0.0 | 0.00 | 0.01 | 0.00 | 94 | 977.9 |
| 20260510075012 | 34 | 10 | 0.0 | 0.0 | 0.00 | 0.01 | 0.00 | 93 | 977.8 |
| 20260510074331 | 35 | 10 | 0.0 | 0.0 | 0.00 | 0.01 | 0.00 | 93 | 977.7 |
| 20260510073841 | 35 | 10 | 0.0 | 0.0 | 0.00 | 0.01 | 0.00 | 92 | 977.5 |
| 20260510073654 | 35 | 10 | 0.0 | 0.0 | 0.00 | 0.01 | 0.00 | 92 | 977.5 |
| 20260510073013 | 35 | 10 | 0.0 | 0.0 | 0.00 | 0.01 | 0.00 | 92 | 977.6 |
| 20260510072336 | 36 | 10 | 0.0 | 0.0 | 0.00 | 0.01 | 0.00 | 91 | 977.4 |
| 20260510071655 | 36 | 10 | 0.0 | 0.0 | 0.00 | 0.01 | 0.00 | 91 | 977.2 |
| 20260510071017 | 36 | 10 | 0.0 | 0.0 | 0.00 | 0.01 | 0.00 | 90 | 977.1 |
| 20260510070336 | 37 | 10 | 0.0 | 0.0 | 0.00 | 0.01 | 0.00 | 89 | 977.0 |
| 20260510065659 | 37 | 10 | 0.0 | 0.0 | 0.00 | 0.01 | 0.00 | 88 | 977.0 |
| 20260510065018 | 38 | 10 | 0.0 | 0.0 | 0.00 | 0.01 | 0.00 | 87 | 977.0 |
| 20260510064340 | 38 | 10 | 0.0 | 0.0 | 0.00 | 0.01 | 0.00 | 86 | 977.0 |
| 20260510063659 | 38 | 10 | 0.0 | 0.0 | 0.00 | 0.01 | 0.00 | 85 | 976.9 |
| 20260510063022 | 39 | 10 | 0.0 | 0.0 | 0.00 | 0.01 | 0.00 | 84 | 976.9 |
| 20260510062341 | 39 | 10 | 0.0 | 0.0 | 0.00 | 0.01 | 0.00 | 83 | 976.9 |
| 20260510061703 | 40 | 10 | 0.0 | 0.0 | 0.00 | 0.01 | 0.00 | 82 | 976.9 |
| 20260510061022 | 40 | 10 | 0.0 | 0.0 | 0.00 | 0.01 | 0.00 | 81 | 976.8 |
| 20260510060345 | 41 | 10 | 0.0 | 0.0 | 0.00 | 0.01 | 0.00 | 80 | 976.8 |
| 20260510055704 | 41 | 10 | 0.0 | 0.0 | 0.00 | 0.01 | 0.00 | 79 | 976.7 |
| 20260510055026 | 42 | 10 | 0.0 | 0.0 | 0.00 | 0.01 | 0.00 | 77 | 976.7 |
| 20260510054346 | 42 | 10 | 0.0 | 0.0 | 0.00 | 0.01 | 0.00 | 76 | 976.6 |
| 20260510053708 | 42 | 10 | 0.0 | 0.0 | 0.00 | 0.01 | 0.00 | 74 | 976.6 |
| 20260510053027 | 43 | 10 | 0.0 | 0.0 | 0.00 | 0.01 | 0.00 | 74 | 976.4 |
| 20260510052350 | 43 | 10 | 0.0 | 0.0 | 0.00 | 0.01 | 0.00 | 74 | 976.5 |
| 20260510051709 | 43 | 10 | 0.0 | 0.0 | 0.00 | 0.01 | 0.00 | 73 | 976.4 |
| 20260510051031 | 43 | 10 | 0.0 | 0.0 | 0.00 | 0.01 | 0.00 | 72 | 976.4 |
| 20260510050350 | 43 | 8 | 6.0 | 8.0 | 0.00 | 0.01 | 0.00 | 72 | 976.4 |
| 20260510045713 | 44 | 10 | 5.0 | 6.0 | 0.00 | 0.01 | 0.00 | 71 | 976.3 |
| 20260510045032 | 44 | 0 | 6.0 | 3.0 | 0.00 | 0.01 | 0.00 | 70 | 976.2 |
| 20260510044355 | 44 | 352 | 7.0 | 6.0 | 0.00 | 0.01 | 0.00 | 70 | 976.2 |
| 20260510043714 | 45 | 11 | 8.0 | 10.0 | 0.00 | 0.01 | 0.00 | 69 | 976.1 |
| 20260510043036 | 45 | 335 | 8.0 | 10.0 | 0.00 | 0.01 | 0.00 | 70 | 975.9 |
| 20260510042355 | 44 | 350 | 4.0 | 6.0 | 0.00 | 0.01 | 0.00 | 71 | 975.6 |
| 20260510041718 | 44 | 333 | 1.0 | 0.0 | 0.00 | 0.01 | 0.00 | 71 | 975.5 |
| 20260510041037 | 45 | 0 | 4.0 | 3.0 | 0.00 | 0.01 | 0.00 | 70 | 975.3 |
| 20260510035752 | 46 | 346 | 5.0 | 6.0 | 0.00 | 0.00 | 0.01 | 69 | 974.8 |
| 20260510035718 | 46 | 346 | 5.0 | 6.0 | 0.00 | 0.00 | 0.01 | 69 | 974.8 |
| 20260510035041 | 46 | 6 | 5.0 | 6.0 | 0.00 | 0.00 | 0.01 | 67 | 974.6 |
| 20260510033814 | 47 | 25 | 3.0 | 0.0 | 0.00 | 0.00 | 0.01 | 64 | 974.4 |
| 20260510033723 | 47 | 25 | 3.0 | 0.0 | 0.00 | 0.00 | 0.01 | 64 | 974.4 |
| 20260510033042 | 47 | 333 | 6.0 | 5.0 | 0.00 | 0.00 | 0.01 | 63 | 974.2 |
| 20260510032404 | 48 | 28 | 7.0 | 8.0 | 0.00 | 0.00 | 0.01 | 62 | 974.1 |
| 20260510031723 | 48 | 10 | 7.0 | 10.0 | 0.00 | 0.00 | 0.01 | 61 | 973.9 |
| 20260510031046 | 48 | 15 | 8.0 | 11.0 | 0.00 | 0.00 | 0.01 | 60 | 973.8 |
| 20260510025727 | 49 | 343 | 3.0 | 3.0 | 0.00 | 0.00 | 0.01 | 57 | 973.4 |
| 20260510025046 | 50 | 326 | 6.0 | 5.0 | 0.00 | 0.00 | 0.01 | 56 | 973.2 |
| 20260510024409 | 51 | 333 | 3.0 | 7.0 | 0.00 | 0.00 | 0.01 | 55 | 973.2 |
| 20260510023728 | 51 | 332 | 5.0 | 6.0 | 0.00 | 0.00 | 0.01 | 54 | 973.1 |
| 20260510023051 | 51 | 328 | 5.0 | 9.0 | 0.00 | 0.00 | 0.01 | 55 | 972.9 |
| 20260510022410 | 51 | 318 | 2.0 | 4.0 | 0.00 | 0.00 | 0.01 | 57 | 972.7 |
| 20260510021732 | 51 | 304 | 1.0 | 0.0 | 0.00 | 0.00 | 0.01 | 59 | 972.5 |
| 20260510021051 | 51 | 311 | 0.0 | 0.0 | 0.00 | 0.00 | 0.01 | 60 | 972.2 |
| 20260510020414 | 51 | 311 | 0.0 | 0.0 | 0.00 | 0.00 | 0.01 | 60 | 971.9 |
| 20260510015733 | 51 | 311 | 0.0 | 0.0 | 0.00 | 0.00 | 0.01 | 60 | 971.8 |
| 20260510015055 | 52 | 321 | 0.0 | 0.0 | 0.00 | 0.00 | 0.01 | 60 | 971.7 |
| 20260510014414 | 52 | 321 | 0.0 | 0.0 | 0.00 | 0.00 | 0.01 | 59 | 971.4 |
| 20260510013737 | 53 | 321 | 0.0 | 0.0 | 0.00 | 0.00 | 0.01 | 57 | 971.2 |
| 20260510013056 | 53 | 321 | 0.0 | 0.0 | 0.00 | 0.00 | 0.01 | 56 | 971.1 |
| 20260510012419 | 54 | 321 | 0.0 | 0.0 | 0.00 | 0.00 | 0.01 | 55 | 970.8 |
| 20260510011738 | 54 | 321 | 0.0 | 0.0 | 0.00 | 0.00 | 0.01 | 54 | 970.6 |
| 20260510011100 | 55 | 321 | 1.0 | 0.0 | 0.00 | 0.00 | 0.01 | 53 | 970.4 |
| 20260510010419 | 55 | 281 | 0.0 | 0.0 | 0.00 | 0.00 | 0.01 | 52 | 970.2 |
| 20260510005742 | 56 | 300 | 0.0 | 0.0 | 0.00 | 0.00 | 0.01 | 52 | 970.1 |
| 20260510005101 | 56 | 280 | 4.0 | 0.0 | 0.00 | 0.00 | 0.01 | 52 | 970.0 |
| 20260510004424 | 56 | 293 | 1.0 | 6.0 | 0.00 | 0.00 | 0.01 | 51 | 969.8 |
| 20260510003743 | 56 | 257 | 4.0 | 0.0 | 0.00 | 0.00 | 0.01 | 51 | 969.6 |
| 20260510002424 | 57 | 300 | 3.0 | 0.0 | 0.00 | 0.00 | 0.01 | 52 | 969.1 |
| 20260510001747 | 57 | 321 | 5.0 | 5.0 | 0.00 | 0.00 | 0.01 | 51 | 968.9 |
| 20260510000429 | 58 | 249 | 5.0 | 0.0 | 0.00 | 0.00 | 0.01 | 52 | 968.8 |
| 20260509235748 | 58 | 263 | 5.0 | 7.0 | 0.00 | 0.00 | 0.01 | 52 | 968.7 |
| 20260509235110 | 58 | 262 | 0.0 | 0.0 | 0.00 | 0.00 | 0.01 | 55 | 968.6 |
| 20260509234429 | 58 | 257 | 4.0 | 0.0 | 0.00 | 0.00 | 0.01 | 55 | 968.5 |
| 20260509233752 | 58 | 285 | 3.0 | 8.0 | 0.00 | 0.00 | 0.01 | 55 | 968.4 |
| 20260509233111 | 58 | 322 | 5.0 | 7.0 | 0.00 | 0.00 | 0.01 | 55 | 968.3 |
| 20260509232434 | 59 | 300 | 6.0 | 0.0 | 0.00 | 0.00 | 0.01 | 55 | 968.2 |
| 20260509231753 | 59 | 322 | 8.0 | 5.0 | 0.00 | 0.00 | 0.01 | 55 | 968.1 |
| 20260509230435 | 59 | 293 | 6.0 | 4.0 | 0.00 | 0.00 | 0.01 | 54 | 968.0 |
| 20260509225757 | 60 | 240 | 7.0 | 7.0 | 0.00 | 0.00 | 0.01 | 53 | 967.9 |
| 20260509225116 | 60 | 256 | 3.0 | 7.0 | 0.00 | 0.00 | 0.01 | 53 | 967.8 |
| 20260509224439 | 60 | 326 | 5.0 | 7.0 | 0.00 | 0.00 | 0.01 | 53 | 967.8 |
| 20260509223758 | 60 | 311 | 6.0 | 5.0 | 0.00 | 0.00 | 0.01 | 53 | 967.7 |
| 20260509223121 | 60 | 231 | 7.0 | 0.0 | 0.00 | 0.00 | 0.01 | 52 | 967.6 |
| 20260509222440 | 60 | 242 | 7.0 | 4.0 | 0.00 | 0.00 | 0.01 | 53 | 967.7 |
| 20260509221803 | 60 | 260 | 2.0 | 7.0 | 0.00 | 0.00 | 0.01 | 52 | 967.8 |
| 20260509221122 | 59 | 319 | 5.0 | 0.0 | 0.00 | 0.00 | 0.01 | 53 | 967.7 |
| 20260509220444 | 59 | 294 | 6.0 | 5.0 | 0.00 | 0.00 | 0.01 | 51 | 967.6 |
| 20260509215803 | 59 | 252 | 7.0 | 0.0 | 0.00 | 0.00 | 0.01 | 50 | 967.4 |
| 20260509215126 | 59 | 257 | 7.0 | 7.0 | 0.00 | 0.00 | 0.01 | 49 | 967.3 |
| 20260509214445 | 60 | 315 | 8.0 | 6.0 | 0.00 | 0.00 | 0.01 | 48 | 967.2 |
| 20260509213808 | 60 | 226 | 2.0 | 3.0 | 0.00 | 0.00 | 0.01 | 47 | 967.0 |
| 20260509213127 | 61 | 336 | 7.0 | 7.0 | 0.00 | 0.00 | 0.01 | 47 | 966.9 |
| 20260509212450 | 61 | 340 | 8.0 | 6.0 | 0.00 | 0.00 | 0.01 | 46 | 966.8 |
| 20260509211809 | 62 | 287 | 7.0 | 6.0 | 0.00 | 0.00 | 0.01 | 44 | 966.7 |
| 20260509211131 | 62 | 300 | 6.0 | 3.0 | 0.00 | 0.00 | 0.01 | 45 | 966.4 |
| 20260509210451 | 62 | 269 | 5.0 | 6.0 | 0.00 | 0.00 | 0.01 | 44 | 966.3 |
| 20260509205813 | 63 | 273 | 3.0 | 0.0 | 0.00 | 0.00 | 0.01 | 44 | 966.0 |
| 20260509205132 | 63 | 308 | 5.0 | 10.0 | 0.00 | 0.00 | 0.01 | 43 | 965.9 |
| 20260509204455 | 63 | 248 | 5.0 | 6.0 | 0.00 | 0.00 | 0.01 | 43 | 965.8 |
| 20260509203814 | 63 | 269 | 6.0 | 3.0 | 0.00 | 0.00 | 0.01 | 43 | 965.7 |
| 20260509203137 | 63 | 225 | 6.0 | 6.0 | 0.00 | 0.00 | 0.01 | 42 | 965.6 |
| 20260509202456 | 63 | 246 | 4.0 | 6.0 | 0.00 | 0.00 | 0.01 | 42 | 965.7 |
| 20260509201819 | 64 | 257 | 5.0 | 12.0 | 0.00 | 0.00 | 0.01 | 42 | 965.6 |
| 20260509201138 | 64 | 228 | 7.0 | 16.0 | 0.00 | 0.00 | 0.01 | 42 | 965.6 |
| 20260509200500 | 64 | 356 | 4.0 | 0.0 | 0.00 | 0.00 | 0.01 | 43 | 965.4 |
| 20260509195820 | 64 | 269 | 8.0 | 5.0 | 0.00 | 0.00 | 0.01 | 41 | 965.5 |
| 20260509195142 | 64 | 277 | 7.0 | 5.0 | 0.00 | 0.00 | 0.01 | 42 | 965.4 |